Dati Storici

Data ora Umidita' aria (%) Temperatura aria (°C) Rad globale (W/m²) Gonioanemometro (°) Tacoanemometro (m/s) Pioggia (mm)
05-11-2012 22:50 74.3 % 10.857 0.919 57.352 0.763 0
05-11-2012 22:40 73.9 % 11.108 0.995 11.717 0.536 0
05-11-2012 22:30 73.8 % 11.447 1.213 40.852 0.714 0
05-11-2012 22:20 73.5 % 11.6 1.329 82.311 0.979 0
05-11-2012 22:10 72.8 % 11.877 1.37 74.327 0.324 0
05-11-2012 22:00 72.7 % 11.897 1.203 86.796 2.158 0
05-11-2012 21:50 73.3 % 11.794 1.023 136.737 1.254 0
05-11-2012 21:40 74 % 11.953 0.966 94.307 0.957 0
05-11-2012 21:30 75.5 % 11.943 1.222 106.531 0.514 0
05-11-2012 21:20 77.8 % 12.089 2.415 67.155 1.527 0
05-11-2012 21:10 82.6 % 12.159 1.872 91.69 1.583 0
05-11-2012 21:00 85.8 % 12.21 2.167 106.821 0.813 0
05-11-2012 20:50 85 % 12.656 1.645 90.169 0.963 0
05-11-2012 20:40 84.1 % 12.891 1.85 38.371 1.08 0
05-11-2012 20:30 83.6 % 13.142 2.024 40.373 0.973 0
05-11-2012 20:20 83.4 % 13.263 2.409 20.969 1.398 0
05-11-2012 20:10 82.6 % 13.208 2.102 356.961 0.773 0
05-11-2012 20:00 81.4 % 13.629 2.281 356.01 0.856 0
05-11-2012 19:50 80.8 % 14.137 1.858 286.952 0.753 0
05-11-2012 19:40 80.7 % 14.048 1.486 265.978 1.764 0

I dati sono presentati in modo automatico a scopo informativo. In seguito a verifica i dati possono subire modifiche o essere invalidati e non riportati negli archivi definitivi.